CW6823 Weather Reports


Display with metric or nautical units.
time (UTC)temp
F
wind
direction
speed
MPH
gust
MPH
rain 1hr
in
rain 24hr
in
rain mn
in
humidity
%
barometer
mb
20260506051005 49 34 9.0 12.0 0.00 0.00 0.00 76 827.3
20260506045005 49 35 8.0 11.0 0.00 0.00 0.00 79 827.3
20260506044505 49 29 9.0 14.0 0.00 0.00 0.00 79 827.3
20260506044006 49 6 4.0 8.0 0.00 0.00 0.00 79 827.3
20260506043505 49 24 7.0 15.0 0.00 0.00 0.00 80 827.3
20260506043005 49 39 7.0 11.0 0.00 0.00 0.00 80 827.3
20260506042504 49 6 5.0 9.0 0.00 0.00 0.00 80 827.3
20260506042005 49 356 5.0 6.0 0.00 0.00 0.00 81 827.3
20260506041505 49 15 5.0 9.0 0.00 0.00 0.00 81 827.3
20260506041005 49 32 6.0 9.0 0.00 0.00 0.00 81 827.3
20260506040005 49 33 6.0 9.0 0.00 0.00 0.00 81 827.3
20260506035507 49 7 4.0 8.0 0.00 0.00 0.00 81 827.3
20260506035004 49 10 4.0 8.0 0.00 0.00 0.00 81 827.3
20260506034504 49 1 2.0 5.0 0.00 0.00 0.00 81 827.3
20260506034005 49 1 4.0 7.0 0.00 0.00 0.00 81 827.3
20260506033505 49 16 4.0 7.0 0.00 0.00 0.00 81 827.3
20260506033005 49 21 4.0 9.0 0.00 0.00 0.00 80 827.3
20260506032505 49 37 6.0 9.0 0.00 0.00 0.00 81 827.3
20260506032005 49 29 5.0 8.0 0.00 0.00 0.00 81 827.3
20260506031504 49 34 7.0 10.0 0.00 0.00 0.00 81 827.3
20260506030005 49 348 5.0 9.0 0.00 0.00 0.00 81 827.3
20260506025505 49 353 4.0 5.0 0.00 0.00 0.00 80 827.3
20260506025005 49 344 4.0 8.0 0.00 0.00 0.00 80 827.3
20260506024505 50 26 7.0 12.0 0.00 0.00 0.00 80 827.3
20260506024005 50 28 7.0 11.0 0.00 0.00 0.00 80 827.3
20260506023505 50 354 4.0 6.0 0.00 0.00 0.00 79 827.3
20260506023005 50 358 3.0 7.0 0.00 0.00 0.00 78 827.3
20260506022504 50 32 8.0 13.0 0.00 0.00 0.00 78 827.3
20260506022005 50 26 7.0 11.0 0.00 0.00 0.00 78 827.3
20260506021506 50 354 6.0 9.0 0.00 0.00 0.00 78 827.3
20260506021004 50 21 4.0 7.0 0.00 0.00 0.00 78 827.3
20260506020505 50 17 4.0 7.0 0.00 0.00 0.00 78 827.3
20260506015504 51 12 4.0 7.0 0.00 0.00 0.00 77 827.4
20260506015005 51 15 5.0 8.0 0.00 0.00 0.00 77 827.4
20260506014505 51 6 3.0 7.0 0.00 0.00 0.00 76 827.4
20260506014004 51 10 3.0 4.0 0.00 0.00 0.00 76 827.4
20260506013505 51 347 2.0 5.0 0.00 0.00 0.00 76 827.4
20260506013005 51 359 2.0 3.0 0.00 0.00 0.00 75 827.4
20260506012505 51 354 3.0 7.0 0.00 0.00 0.00 75 827.4
20260506011506 51 3 4.0 5.0 0.00 0.00 0.00 74 827.4
20260506011004 51 338 2.0 3.0 0.00 0.00 0.00 74 827.4
20260506010504 51 348 4.0 8.0 0.00 0.00 0.00 74 827.4
20260506010005 52 356 3.0 7.0 0.00 0.00 0.00 74 827.4
20260506005504 52 4 4.0 6.0 0.00 0.00 0.00 75 827.4
20260506005005 52 345 2.0 5.0 0.00 0.00 0.00 75 827.4
20260506004506 52 349 2.0 4.0 0.00 0.00 0.00 75 827.4
20260506002504 52 19 5.0 8.0 0.00 0.00 0.00 75 827.5
20260506002006 52 355 2.0 3.0 0.00 0.00 0.00 76 827.5
20260506001504 52 24 5.0 9.0 0.00 0.00 0.00 76 827.5
20260506001005 53 19 6.0 8.0 0.00 0.00 0.00 75 827.5
20260506000505 53 31 4.0 9.0 0.00 0.00 0.00 76 827.5
20260505235505 53 353 4.0 7.0 0.00 0.00 0.00 75 827.5
20260505235005 53 16 4.0 6.0 0.00 0.00 0.00 74 827.5
20260505234505 53 355 4.0 8.0 0.00 0.00 0.00 74 827.5
20260505234004 53 356 4.0 7.0 0.00 0.00 0.00 74 827.5
20260505233004 53 26 4.0 7.0 0.00 0.00 0.00 74 827.5
20260505232505 53 2 3.0 6.0 0.00 0.00 0.00 75 827.5
20260505232004 53 2 4.0 9.0 0.00 0.00 0.00 74 827.5
20260505231506 53 16 4.0 8.0 0.00 0.00 0.00 75 827.5
20260505230505 53 335 4.0 8.0 0.00 0.00 0.00 75 827.5
20260505230004 53 3 5.0 7.0 0.00 0.00 0.00 75 827.5
20260505225505 53 342 4.0 6.0 0.00 0.00 0.00 75 827.5
20260505225005 53 345 4.0 11.0 0.00 0.00 0.00 75 827.5
20260505224505 53 346 5.0 7.0 0.00 0.00 0.00 75 827.5
20260505224004 53 347 3.0 7.0 0.00 0.00 0.00 75 827.5
20260505223005 54 353 4.0 7.0 0.00 0.00 0.00 76 827.5
20260505222505 54 347 4.0 8.0 0.00 0.00 0.00 76 827.6
20260505222005 54 7 4.0 6.0 0.00 0.00 0.00 76 827.6
20260505221005 54 3 2.0 4.0 0.00 0.00 0.00 77 827.6
20260505220505 54 0 3.0 4.0 0.00 0.00 0.00 77 827.6
20260505220005 54 357 3.0 5.0 0.00 0.00 0.00 78 827.6
20260505215505 54 8 2.0 5.0 0.00 0.00 0.00 78 827.6
20260505215004 54 3 2.0 2.0 0.00 0.00 0.00 79 827.6
20260505214505 54 9 4.0 8.0 0.00 0.00 0.00 79 827.6
20260505214005 54 18 3.0 7.0 0.00 0.00 0.00 79 827.6
20260505213005 54 9 4.0 6.0 0.00 0.00 0.00 80 827.6
20260505211505 54 2 4.0 6.0 0.00 0.00 0.00 81 827.6
20260505205505 55 353 5.0 8.0 0.00 0.00 0.00 81 827.6
20260505205005 55 347 4.0 7.0 0.00 0.00 0.00 81 827.6
20260505204505 55 344 4.0 8.0 0.00 0.00 0.00 81 827.6
20260505204006 55 11 3.0 6.0 0.00 0.00 0.00 81 827.7
20260505203504 55 2 6.0 10.0 0.00 0.00 0.00 81 827.7
20260505203005 56 349 5.0 9.0 0.00 0.00 0.00 80 827.7
20260505202504 56 357 4.0 7.0 0.00 0.00 0.00 80 827.7
20260505202005 56 353 5.0 7.0 0.00 0.00 0.00 79 827.7
20260505200505 57 18 5.0 8.0 0.00 0.00 0.00 79 827.8
20260505200004 56 32 6.0 9.0 0.00 0.00 0.00 80 827.8
20260505195505 56 9 4.0 6.0 0.00 0.00 0.00 80 827.7
20260505195004 57 342 4.0 9.0 0.00 0.00 0.00 80 827.7
20260505194505 57 357 3.0 4.0 0.00 0.00 0.00 80 827.8
20260505194005 57 0 3.0 4.0 0.00 0.00 0.00 80 827.8
20260505193504 57 12 4.0 6.0 0.00 0.00 0.00 80 827.8
20260505192505 57 333 4.0 8.0 0.00 0.00 0.00 80 827.8
20260505191505 58 353 3.0 6.0 0.00 0.00 0.00 80 827.8
20260505191004 58 351 4.0 7.0 0.00 0.00 0.00 80 827.8
20260505190505 58 326 6.0 10.0 0.00 0.00 0.00 80 827.8
20260505185505 58 1 4.0 7.0 0.00 0.00 0.00 79 827.8
20260505185004 58 345 4.0 8.0 0.00 0.00 0.00 79 827.8
20260505184505 58 350 4.0 7.0 0.00 0.00 0.00 79 827.9
20260505183004 59 353 5.0 15.0 0.00 0.00 0.00 80 827.9
20260505182505 59 348 5.0 10.0 0.00 0.00 0.00 80 827.9
20260505182006 59 347 4.0 8.0 0.00 0.00 0.00 80 827.9
20260505181505 59 7 4.0 7.0 0.00 0.00 0.00 80 827.9
20260505181004 59 4 6.0 8.0 0.00 0.00 0.00 80 827.9
20260505180506 59 357 3.0 6.0 0.00 0.00 0.00 80 827.9
20260505180005 60 12 5.0 9.0 0.00 0.00 0.00 79 827.9
20260505175508 60 355 5.0 9.0 0.00 0.00 0.00 79 827.9
20260505175004 61 332 4.0 8.0 0.00 0.00 0.00 79 828.0
20260505173505 64 329 5.0 9.0 0.00 0.00 0.00 78 828.1
20260505172505 66 354 5.0 8.0 0.00 0.00 0.00 77 828.3
20260505172005 67 333 8.0 19.0 0.00 0.00 0.00 77 828.3
20260505171505 69 341 6.0 12.0 0.00 0.00 0.00 75 828.4
20260505171005 72 345 8.0 12.0 0.00 0.00 0.00 74 828.5
20260505170505 74 316 7.0 9.0 0.00 0.00 0.00 71 828.7
20260505170005 76 324 4.0 7.0 0.00 0.00 0.00 66 829.0
20260505165504 76 306 2.0 4.0 0.00 0.00 0.00 63 829.0
20260505165005 77 310 3.0 4.0 0.00 0.00 0.00 63 829.0
20260505164504 77 313 2.0 5.0 0.00 0.00 0.00 67 829.0
20260505164005 77 249 2.0 4.0 0.00 0.00 0.00 64 829.0
20260505163505 77 332 1.0 3.0 0.00 0.00 0.00 65 829.0
20260505163006 78 240 1.0 1.0 0.00 0.00 0.00 64 829.1
20260505162505 77 278 0.0 0.0 0.00 0.00 0.00 65 829.1
20260505162005 76 103 1.0 2.0 0.00 0.00 0.00 67 829.0
20260505161505 75 204 1.0 2.0 0.00 0.00 0.00 70 828.9
20260505161005 75 234 2.0 4.0 0.00 0.00 0.00 68 828.9
20260505160505 75 191 3.0 4.0 0.00 0.00 0.00 69 828.8
20260505152504 73 224 2.0 3.0 0.00 0.00 0.00 73 828.8
20260505152004 73 222 3.0 3.0 0.00 0.00 0.00 73 828.7
20260505151504 73 222 2.0 3.0 0.00 0.00 0.00 73 828.7
20260505151005 73 279 2.0 6.0 0.00 0.00 0.00 74 828.7
20260505150504 73 218 4.0 6.0 0.00 0.00 0.00 73 828.7
20260505140504 72 251 2.0 4.0 0.00 0.00 0.00 76 828.7
20260505125006 70 203 2.0 3.0 0.00 0.00 0.00 78 828.5
20260505124505 70 241 1.0 3.0 0.00 0.00 0.00 79 828.5
20260505124005 70 188 3.0 4.0 0.00 0.00 0.00 79 828.5
20260505123004 70 185 2.0 4.0 0.00 0.00 0.00 79 828.5
20260505121505 70 197 3.0 4.0 0.00 0.00 0.00 79 828.5
20260505120005 70 188 6.0 13.0 0.00 0.00 0.00 79 828.5
20260505115005 70 194 5.0 9.0 0.00 0.00 0.00 79 828.5
20260505114504 70 187 5.0 9.0 0.00 0.00 0.00 78 828.5
20260505114005 70 194 5.0 8.0 0.00 0.00 0.00 78 828.5
20260505113506 70 185 4.0 7.0 0.00 0.00 0.00 78 828.5
20260505113005 70 193 5.0 9.0 0.00 0.00 0.00 78 828.5
20260505112505 70 189 4.0 9.0 0.00 0.00 0.00 78 828.5
20260505112006 70 194 6.0 12.0 0.00 0.00 0.00 77 828.5
20260505111505 70 187 4.0 8.0 0.00 0.00 0.00 77 828.5
20260505111005 71 182 4.0 6.0 0.00 0.00 0.00 77 828.5
20260505110505 71 189 4.0 6.0 0.00 0.00 0.00 77 828.5
20260505102005 71 198 4.0 8.0 0.00 0.00 0.00 75 828.6
20260505101506 71 191 5.0 8.0 0.00 0.00 0.00 75 828.6
20260505101005 71 208 3.0 6.0 0.00 0.00 0.00 76 828.6
20260505100505 71 175 4.0 8.0 0.00 0.00 0.00 76 828.6
20260505095504 71 188 5.0 7.0 0.00 0.00 0.00 75 828.6
20260505094504 71 170 6.0 9.0 0.00 0.00 0.00 75 828.6
20260505094005 72 194 3.0 6.0 0.00 0.00 0.00 75 828.6
20260505093505 72 194 6.0 12.0 0.00 0.00 0.00 74 828.6
20260505093004 72 190 5.0 8.0 0.00 0.00 0.00 74 828.6
20260505092505 72 197 4.0 9.0 0.00 0.00 0.00 74 828.6
20260505092006 72 192 5.0 8.0 0.00 0.00 0.00 74 828.6
20260505091505 72 191 4.0 6.0 0.00 0.00 0.00 74 828.6
20260505090010 72 195 5.0 8.0 0.00 0.00 0.00 74 828.6
20260505085506 72 190 4.0 8.0 0.00 0.00 0.00 74 828.6
20260505085005 72 197 4.0 8.0 0.00 0.00 0.00 74 828.6
20260505084505 72 179 4.0 6.0 0.00 0.00 0.00 74 828.6
20260505084005 72 185 4.0 6.0 0.00 0.00 0.00 74 828.6
20260505083504 72 194 5.0 11.0 0.00 0.00 0.00 74 828.6
20260505083005 71 193 7.0 11.0 0.00 0.00 0.00 74 828.6
20260505082504 71 168 5.0 9.0 0.00 0.00 0.00 75 828.6
20260505082005 71 198 4.0 9.0 0.00 0.00 0.00 75 828.6
20260505081505 71 173 3.0 5.0 0.00 0.00 0.00 74 828.6
20260505081005 71 197 6.0 8.0 0.00 0.00 0.00 74 828.6
20260505080504 71 188 5.0 9.0 0.00 0.00 0.00 75 828.6
20260505080005 71 183 4.0 9.0 0.00 0.00 0.00 75 828.6
20260505075505 71 174 4.0 6.0 0.00 0.00 0.00 75 828.6
20260505075005 71 187 5.0 9.0 0.00 0.00 0.00 75 828.6
20260505074506 71 171 3.0 5.0 0.00 0.00 0.00 76 828.6
20260505073505 71 163 4.0 8.0 0.00 0.00 0.00 75 828.6
20260505073004 71 189 4.0 7.0 0.00 0.00 0.00 75 828.6
20260505072505 71 188 4.0 8.0 0.00 0.00 0.00 75 828.6
20260505071506 71 180 5.0 9.0 0.00 0.00 0.00 75 828.6
20260505071005 71 185 4.0 8.0 0.00 0.00 0.00 75 828.6
20260505070505 71 171 3.0 7.0 0.00 0.00 0.00 75 828.6
20260505065505 71 185 4.0 9.0 0.00 0.00 0.00 74 828.6
20260505065005 71 184 4.0 7.0 0.00 0.00 0.00 74 828.6
20260505064505 71 180 4.0 7.0 0.00 0.00 0.00 74 828.6
20260505064005 71 178 5.0 9.0 0.00 0.00 0.00 74 828.6
20260505063504 71 181 6.0 9.0 0.00 0.00 0.00 74 828.6
20260505063005 71 173 6.0 10.0 0.00 0.00 0.00 74 828.6
20260505062505 71 188 5.0 8.0 0.00 0.00 0.00 74 828.6
20260505061504 71 173 5.0 8.0 0.00 0.00 0.00 75 828.6
20260505060004 71 173 3.0 8.0 0.00 0.00 0.00 75 828.6